NOAA 16 DEB, 41406

Orbit data source: Space-Track

NOAA 16 DEB, 41406 is space debris in SSO originally from a launch on Thu, 21 Sep 2000 UTC launched from the Air Force Western Test Range (AFWTR). Debris objects in space refer to the collection of defunct objects orbiting the Earth. Examples of debris include non-operational satellites, rocket bodies, and fragments generated from explosions, collisions, or faulty payload assembly.

Loading next visibility...
Identifier
41406, 2000-055KK
Orbit
SSO
Country
Flag of USUS
Related business
Manufacturer
Unknown
Mission
Spacecraft
Bus & Motor
Unknown
Mass
Unknown
Launch date (UTC)
2000-09-21 (26 years ago)
Launch vehicle
Unknown
Launch site
Air Force Western Test Range (AFWTR)
Object type
Payload
Rocket body
Debris
Shape & HBR
Unknown shape, 0.1 m
Radar Cross Section
Medium (>0.1 m² and <1 m²)

Expand to show TLE details & history
Last TLE update: 20 hours ago

TLE from 20 hours ago
0 NOAA 16 DEB
1 41406U 00055KK  26263.08588604  .00003897  00000-0  85080-3 0  9994
2 41406  98.9481 125.3477 0028714 112.7434 247.6801 14.58215271552645
Epoch: 2026-09-20T02:03Z
TLE epoch observation values (Epoch: 2026-09-20T02:03:40.553Z)
Latitude
-0.00011°
Longitude
95.44362°
Altitude
709.67 km
Speed
7.497 km/s
True Right ascension
08h 21m 23s
True Declination
0° 00' 00"
Sunlit
Object was in daylight at epoch
Visualization orbit readout
Latitude
Unknown
Longitude
Unknown
Altitude
Unknown
Speed
Unknown
Apparent Right ascension
Unknown
Apparent Declination
Unknown
Sunlit
N/A
Visualization observer readout
Local Sidereal Time
15:01:19
Azimuth
Unknown
Elevation
Unknown
Doppler factor
Unknown
Orbital elements
Apogee altitude
716.375 km
Perigee altitude
675.749 km
Semi-major axis
7,074.199 km
Eccentricity
0.00287
Inclination
98.9481°
RAAN
125.3477°
Arg. of periapsis
112.7434°
True anomaly
247.37613°
Mean anomaly
247.6801°
Eccentric anomaly
247.52807°
Mean motion
3.64777 °/min
Orbital period
98.69 mins
BSTAR
0.0008508
Loading maneuver chart data...
Computing Atmospheric mass density...

Documentation

Showing up to 5 results
|